Regional Weather Roundup
Issued by NWS Goodland, KS

Home | Current Version | Previous Version | Text Only | Print | Product List | Glossary Off
Versions: 1 2 3 4 5 6 7 8 9 10 11 12 13 14 15 16 17 18 19 20 21 22 23 24 25 26 27 28 29 30 31 32 33 34 35 36 37 38 39 40 41 42 43 44 45 46 47 48 49 50

341
ASUS43 KGLD 211059
RWRGLD

GOODLAND FORECAST AREA HOURLY WEATHER ROUNDUP
NATIONAL WEATHER SERVICE GOODLAND KS
500 AM MDT MON AUG 21 2017

...OFFICIAL OBSERVATIONS...

CITY           SKY/WX    TMP DP  RH WIND       PRES   REMARKS
GOODLAND KS    PTCLDY    66  62  87 S9        29.99S
HILL CITY KS   CLOUDY    75  65  70 S15G22    29.96S
IMPERIAL NEB   CLEAR     62  60  93 CALM      29.96F
MCCOOK NEB     PTCLDY    68  64  87 SW6       29.94R
AKRON CO       CLEAR     63  47  55 W12       30.04S
BURLINGTON CO  PTCLDY    62  60  93 W5        30.03R
LIMON CO       CLEAR     56  47  71 N5        30.10S
$$

...UNOFFICIAL OBSERVATIONS...

CITY           SKY/WX    TMP DP  RH WIND       PRES   REMARKS
LENORA KS        N/A     71  32  23 S10         N/A
NORTON KS      CLEAR     73  61  64 S12       29.95R
TRENTON NEB      N/A     69  32  25 W5          N/A
KIT CARSON CO    N/A     63  58  83 CALM        N/A
YUMA CO        FAIR      59  48  67 W7        30.00S
$$




USA.gov is the U.S. government's official web portal to all federal, state and local government web resources and services.